[[{"header":{"parameterUnit":"m.s-1","parameterCategory":2,"la1":30.2992,"la2":30.254,"lo1":-89.0895,"lo2":-89.0443,"dy":0.0025,"dx":0.0025,"nx":19,"ny":19,"refTime":"2026-05-07T03:00:00:Z","depth":"0","parameterNumber":2,"parameterNumberName":"U-component_of_CURRENTS"},"data":[0,0,0,-0.1353,-0.1354,-0.144,-0.1441,-0.1437,-0.1436,0,0,0,0,0,0,0,0,0,0,0,-0.131,-0.1311,-0.1353,-0.1355,-0.144,-0.1441,-0.1437,-0.1436,0,0,0,0,0,0,0,0,0,0,0,-0.131,-0.131,-0.1311,-0.1355,-0.144,-0.1441,-0.1437,-0.1403,0,0,0,0,0,0,0,0,0,0,-0.1335,-0.1316,-0.131,-0.1311,-0.1355,-0.144,-0.1441,-0.1403,-0.1405,-0.1362,0,-0.1362,0,-0.1397,-0.1433,-0.1432,0,0,0,-0.1365,-0.1314,-0.1329,-0.1311,-0.1356,-0.144,-0.1405,-0.1405,-0.1407,-0.1364,-0.1363,-0.1364,-0.1397,-0.1432,-0.1432,-0.125,-0.1248,0,0,-0.136,-0.1336,-0.1327,-0.133,-0.1358,-0.1402,-0.1407,-0.1408,-0.1403,-0.1363,-0.1365,-0.1397,-0.1432,-0.1431,-0.1251,-0.125,0,0,0,-0.1339,-0.1332,-0.135,-0.1329,-0.1352,-0.1404,-0.141,-0.1404,-0.1407,-0.1365,-0.1397,-0.1431,-0.1431,-0.1253,-0.1251,-0.1172,0,0,0,-0.1337,-0.132,-0.1347,-0.1336,-0.1352,-0.1397,-0.1406,-0.1407,-0.1409,-0.1397,-0.1431,-0.143,-0.1255,-0.1252,-0.1178,-0.1181,0,0,0,-0.131,-0.1318,-0.132,-0.1334,-0.1368,-0.1398,-0.1404,-0.1409,-0.1427,-0.1432,-0.143,-0.1256,-0.1252,-0.1183,-0.1188,-0.1165,0,0,0,-0.1294,-0.1271,-0.1319,-0.1291,-0.1366,-0.1349,-0.1405,-0.1409,-0.1409,-0.1431,-0.1255,-0.1251,-0.1185,-0.1192,-0.1169,-0.1068,-0.1042,0,0,-0.1252,-0.1265,-0.1245,-0.129,-0.1243,-0.1339,-0.1272,-0.1311,-0.1329,-0.1253,-0.125,-0.1176,-0.1188,-0.1166,-0.0853,-0.0834,0,0,0,-0.1222,-0.1202,-0.1195,-0.1184,-0.1196,-0.1187,-0.1233,-0.1227,-0.1181,-0.1311,-0.1122,-0.1132,-0.1121,-0.1066,-0.1049,-0.0929,-0.1234,-0.1234,-0.1234,-0.1138,-0.1136,-0.1089,-0.1077,-0.1062,-0.1075,-0.1062,-0.1049,-0.1077,-0.1024,-0.1026,-0.0902,-0.0834,-0.0823,-0.0697,-0.0958,-0.0957,-0.0957,-0.0957,-0.1055,-0.1023,-0.1012,-0.0971,-0.0953,-0.0913,-0.0883,-0.09,-0.0851,-0.0884,-0.0877,-0.0932,-0.08,-0.0673,-0.0951,-0.0952,-0.0953,-0.0953,-0.0954,-0.0992,-0.0977,-0.0963,-0.0922,-0.0882,-0.0867,-0.0832,-0.0823,-0.0794,-0.0776,-0.0747,-0.0748,-0.068,-0.0776,-0.0776,-0.0776,-0.0775,-0.0775,-0.0775,-0.0946,-0.0927,-0.0923,-0.0894,-0.0901,-0.088,-0.0835,-0.0789,-0.07,-0.0667,-0.0666,-0.0584,-0.0848,-0.0906,-0.0773,-0.0773,-0.0774,-0.0774,-0.0774,-0.0869,-0.0913,-0.0901,-0.0916,-0.0887,-0.0794,-0.0807,-0.0622,-0.06,-0.0516,-0.0369,-0.0604,-0.0638,-0.065,-0.0701,-0.0524,-0.0524,-0.0524,-0.0524,-0.0863,-0.0866,-0.0863,-0.0843,-0.0793,-0.0725,-0.0514,-0.0385,-0.0234,-0.0143,-0.0197,-0.017,-0.0185,-0.0194,-0.0215,-0.0259,0.0027,0.0028,0.0028,-0.085,-0.0862,-0.0817,-0.0759,-0.0697,-0.0552,-0.0281,-0.008,0.0066,0.0058,-0.0044,-0.0067,-0.0025,-0.006,-0.0078,-0.0119,-0.0194,0,0]},{"header":{"parameterUnit":"m.s-1","parameterCategory":2,"la1":30.2992,"la2":30.254,"lo1":-89.0895,"lo2":-89.0443,"dy":0.0025,"dx":0.0025,"nx":19,"ny":19,"refTime":"2026-05-07T03:00:00:Z","depth":"0","parameterNumber":3,"parameterNumberName":"V-component_of_CURRENTS"},"data":[0,0,0,-0.042,-0.0419,-0.034,-0.0339,-0.0122,-0.012,0,0,0,0,0,0,0,0,0,0,0,-0.0449,-0.0449,-0.042,-0.0419,-0.034,-0.0339,-0.0123,-0.012,0,0,0,0,0,0,0,0,0,0,0,-0.0449,-0.0449,-0.0449,-0.0419,-0.034,-0.0339,-0.0123,-0.0207,0,0,0,0,0,0,0,0,0,0,-0.0297,-0.0346,-0.0449,-0.0449,-0.0418,-0.034,-0.0339,-0.0212,-0.0202,-0.013,0,-0.0134,0,-0.0125,-0.0105,-0.0104,0,0,0,-0.0401,-0.0355,-0.0337,-0.0449,-0.0418,-0.034,-0.037,-0.0207,-0.0195,-0.0116,-0.0131,-0.0123,-0.0121,-0.0103,-0.0102,0.0098,0.0098,0,0,-0.0406,-0.0422,-0.0346,-0.033,-0.0414,-0.0373,-0.0368,-0.0201,-0.019,-0.013,-0.0119,-0.0118,-0.0102,-0.01,0.0098,0.0098,0,0,0,-0.043,-0.0425,-0.0413,-0.0338,-0.0335,-0.0371,-0.0366,-0.0198,-0.0196,-0.0116,-0.0115,-0.01,-0.0097,0.0097,0.0098,0.0056,0,0,0,-0.0432,-0.044,-0.0416,-0.0422,-0.034,-0.0281,-0.0366,-0.0208,-0.0189,-0.0116,-0.01,-0.0095,0.0097,0.0097,0.0056,0.0015,0,0,0,-0.045,-0.0442,-0.044,-0.0424,-0.0398,-0.0284,-0.0272,-0.0204,-0.0188,-0.0104,-0.0095,0.0096,0.0097,0.0056,0.0017,0.0031,0,0,0,-0.0458,-0.046,-0.044,-0.0438,-0.0399,-0.0353,-0.0273,-0.0227,-0.0166,-0.0099,0.0097,0.0098,0.0056,0.0018,0.0032,0.0187,0.0197,0,0,-0.0466,-0.0461,-0.0461,-0.0442,-0.0417,-0.0362,-0.0291,-0.0186,-0.0115,0.0052,0.0056,0.0056,0.0017,0.0031,0.0249,0.0257,0,0,0,-0.0467,-0.0461,-0.0454,-0.0432,-0.0398,-0.0332,-0.0239,-0.0164,-0.003,-0.0076,0.0089,0.0067,0.0077,0.0173,0.018,0.0232,0.0103,0.0103,0.0102,-0.0473,-0.046,-0.0445,-0.0415,-0.0381,-0.0292,-0.0224,-0.0094,-0.0027,0.0029,0.0058,0.0072,0.0176,0.0183,0.0234,0.01,0.01,0.01,0.01,-0.0469,-0.046,-0.0428,-0.041,-0.0352,-0.0285,-0.0147,-0.0095,0.0036,0.0076,0.0089,0.0156,0.0188,0.024,0.0098,0.0098,0.0098,0.0099,0.0099,-0.0469,-0.0463,-0.045,-0.0412,-0.0346,-0.027,-0.0117,-0.0083,-0.0011,0.0002,0.0139,0.0142,0.0165,0.0018,0.0018,0.0018,0.0018,0.0017,0.0017,-0.0481,-0.0465,-0.043,-0.0404,-0.0324,-0.0236,-0.0113,-0.002,0.0047,0.0102,0.0105,0.0201,0.0047,0.0024,0.0016,0.0016,0.0016,0.0016,0.0017,-0.0488,-0.0485,-0.0389,-0.0314,-0.0134,0.0066,0.0122,0.0303,0.0298,0.0354,0.0328,0.0185,0.0214,0.0212,0.0195,0.0231,0.0231,0.0231,0.0231,-0.0494,-0.0492,-0.0271,-0.0066,0.0123,0.0262,0.063,0.0715,0.0623,0.056,0.044,0.0502,0.0491,0.0537,0.0528,0.0518,0.0635,0.0635,0.0635,-0.0494,-0.039,-0.0181,0.0049,0.0312,0.0528,0.0884,0.1055,0.0829,0.0648,0.0473,0.0456,0.0538,0.0517,0.0585,0.0567,0.055,0,0]}],[{"header":{"parameterUnit":"m.s-1","parameterCategory":2,"la1":30.2992,"la2":30.254,"lo1":-89.0895,"lo2":-89.0443,"dy":0.0025,"dx":0.0025,"nx":19,"ny":19,"refTime":"2026-05-07T03:00:00:Z","depth":"2","parameterNumber":2,"parameterNumberName":"U-component_of_CURRENTS"},"data":[0,0,0,-0.1148,-0.1149,-0.1208,-0.1208,-0.1257,-0.1257,0,0,0,0,0,0,0,0,0,0,0,-0.1131,-0.1131,-0.1148,-0.1149,-0.1207,-0.1208,-0.1257,-0.1257,0,0,0,0,0,0,0,0,0,0,0,-0.1131,-0.1131,-0.1131,-0.1149,-0.1207,-0.1208,-0.1257,-0.1224,0,0,0,0,0,0,0,0,0,0,-0.1172,-0.1151,-0.1131,-0.1131,-0.1149,-0.1207,-0.1208,-0.1223,-0.1226,-0.1217,0,-0.1215,0,-0.1226,-0.1258,-0.1258,0,0,0,-0.1169,-0.1149,-0.1161,-0.1131,-0.1149,-0.1207,-0.1187,-0.1225,-0.1229,-0.1221,-0.1216,-0.1218,-0.1226,-0.1258,-0.1258,-0.1123,-0.1122,0,0,-0.1166,-0.1148,-0.1159,-0.1163,-0.115,-0.1185,-0.1188,-0.1228,-0.1226,-0.1216,-0.1219,-0.1227,-0.1258,-0.1258,-0.1125,-0.1123,0,0,0,-0.1143,-0.1146,-0.1158,-0.1161,-0.1167,-0.1186,-0.119,-0.1225,-0.1228,-0.122,-0.1228,-0.1258,-0.1259,-0.1126,-0.1124,-0.1038,0,0,0,-0.1142,-0.1131,-0.1157,-0.1148,-0.1166,-0.1199,-0.1186,-0.1226,-0.123,-0.1228,-0.1258,-0.1259,-0.1128,-0.1125,-0.1044,-0.1047,0,0,0,-0.1131,-0.113,-0.1131,-0.1146,-0.1162,-0.1199,-0.1205,-0.1227,-0.1234,-0.1258,-0.1259,-0.1129,-0.1126,-0.1049,-0.1055,-0.1029,0,0,0,-0.1119,-0.1098,-0.1131,-0.1104,-0.1161,-0.1138,-0.1206,-0.121,-0.1224,-0.1259,-0.1128,-0.1124,-0.1051,-0.1059,-0.1033,-0.0977,-0.0953,0,0,-0.1082,-0.1093,-0.1075,-0.1105,-0.106,-0.1133,-0.1066,-0.1126,-0.1157,-0.1121,-0.1119,-0.1042,-0.1055,-0.103,-0.076,-0.0744,0,0,0,-0.1056,-0.1038,-0.1031,-0.1015,-0.1019,-0.1002,-0.1044,-0.1039,-0.1015,-0.1143,-0.0989,-0.1,-0.0988,-0.096,-0.0945,-0.1106,-0.1107,-0.1107,-0.1108,-0.0982,-0.0981,-0.0938,-0.0925,-0.0907,-0.0903,-0.0887,-0.0876,-0.0917,-0.0866,-0.0889,-0.076,-0.0722,-0.0712,-0.0821,-0.082,-0.082,-0.082,-0.0819,-0.0908,-0.0879,-0.0869,-0.0831,-0.0809,-0.0766,-0.0728,-0.0741,-0.0698,-0.0738,-0.073,-0.0818,-0.0692,-0.0812,-0.0813,-0.0814,-0.0815,-0.0816,-0.0816,-0.0853,-0.0839,-0.0827,-0.0784,-0.0738,-0.0716,-0.0673,-0.0662,-0.0643,-0.0623,-0.0629,-0.0631,-0.0772,-0.0625,-0.0625,-0.0624,-0.0624,-0.0624,-0.0624,-0.0813,-0.0795,-0.0777,-0.0747,-0.073,-0.0704,-0.0665,-0.0632,-0.0573,-0.0549,-0.0548,-0.0696,-0.0703,-0.076,-0.0621,-0.0622,-0.0622,-0.0622,-0.0623,-0.0745,-0.0772,-0.0727,-0.0716,-0.0676,-0.0637,-0.063,-0.0533,-0.05,-0.045,-0.05,-0.0503,-0.0545,-0.0556,-0.0608,-0.044,-0.044,-0.044,-0.044,-0.0726,-0.0728,-0.0654,-0.0607,-0.0575,-0.0579,-0.0475,-0.0417,-0.039,-0.0365,-0.0368,-0.0376,-0.0384,-0.042,-0.0434,-0.0486,-0.0285,-0.0285,-0.0285,-0.07,-0.0677,-0.0583,-0.0525,-0.0494,-0.049,-0.0385,-0.0251,-0.0194,-0.0283,-0.0385,-0.0421,-0.0442,-0.0451,-0.0519,-0.0536,-0.0626,0,0]},{"header":{"parameterUnit":"m.s-1","parameterCategory":2,"la1":30.2992,"la2":30.254,"lo1":-89.0895,"lo2":-89.0443,"dy":0.0025,"dx":0.0025,"nx":19,"ny":19,"refTime":"2026-05-07T03:00:00:Z","depth":"2","parameterNumber":3,"parameterNumberName":"V-component_of_CURRENTS"},"data":[0,0,0,-0.0477,-0.0476,-0.0427,-0.0426,-0.023,-0.0228,0,0,0,0,0,0,0,0,0,0,0,-0.0495,-0.0495,-0.0477,-0.0476,-0.0427,-0.0426,-0.0231,-0.0228,0,0,0,0,0,0,0,0,0,0,0,-0.0495,-0.0495,-0.0495,-0.0476,-0.0427,-0.0426,-0.0231,-0.0299,0,0,0,0,0,0,0,0,0,0,-0.0362,-0.0405,-0.0495,-0.0495,-0.0476,-0.0427,-0.0426,-0.0303,-0.0294,-0.0218,0,-0.0222,0,-0.0221,-0.0213,-0.0212,0,0,0,-0.0465,-0.0413,-0.0398,-0.0495,-0.0476,-0.0427,-0.0446,-0.0299,-0.0289,-0.0206,-0.0219,-0.0213,-0.0217,-0.0212,-0.0211,-0.0032,-0.0031,0,0,-0.0468,-0.0479,-0.0406,-0.0392,-0.0473,-0.0448,-0.0445,-0.0295,-0.0286,-0.0219,-0.0209,-0.0214,-0.021,-0.0209,-0.0032,-0.0032,0,0,0,-0.0483,-0.0481,-0.0473,-0.0399,-0.0401,-0.0446,-0.0443,-0.0293,-0.029,-0.0207,-0.0212,-0.0209,-0.0206,-0.0032,-0.0032,-0.0083,0,0,0,-0.0484,-0.0491,-0.0474,-0.0479,-0.0405,-0.0365,-0.0444,-0.03,-0.0284,-0.0213,-0.0209,-0.0204,-0.0032,-0.0032,-0.0082,-0.0112,0,0,0,-0.0496,-0.0492,-0.0491,-0.048,-0.0464,-0.0368,-0.0357,-0.0298,-0.0286,-0.0212,-0.0203,-0.0033,-0.0032,-0.0081,-0.011,-0.0095,0,0,0,-0.0503,-0.0504,-0.0491,-0.0489,-0.0465,-0.0432,-0.0358,-0.0322,-0.0269,-0.0208,-0.0032,-0.0032,-0.0081,-0.0109,-0.0094,-0.0077,-0.0078,0,0,-0.0509,-0.0505,-0.0504,-0.0491,-0.0471,-0.0437,-0.039,-0.0295,-0.0224,-0.007,-0.0067,-0.0082,-0.011,-0.0095,-0.0039,-0.0042,0,0,0,-0.0508,-0.0505,-0.0498,-0.0482,-0.0457,-0.0412,-0.034,-0.0285,-0.017,-0.0191,-0.0054,-0.007,-0.0059,-0.0046,-0.0048,-0.0029,-0.0029,-0.0029,-0.0029,-0.0517,-0.0505,-0.0492,-0.0468,-0.0443,-0.0382,-0.0337,-0.0238,-0.0174,-0.0132,-0.0091,-0.0088,-0.0074,-0.0075,-0.0062,-0.0062,-0.0062,-0.0062,-0.0063,-0.0515,-0.0506,-0.048,-0.0464,-0.0421,-0.0376,-0.0279,-0.0242,-0.014,-0.01,-0.0087,-0.0075,-0.008,-0.0066,-0.0065,-0.0065,-0.0065,-0.0064,-0.0064,-0.0516,-0.051,-0.05,-0.0472,-0.0426,-0.0371,-0.0312,-0.0243,-0.0176,-0.0167,-0.0112,-0.0111,-0.0126,-0.0146,-0.0146,-0.0146,-0.0147,-0.0147,-0.0147,-0.0526,-0.0513,-0.0512,-0.0478,-0.0463,-0.0424,-0.0327,-0.0272,-0.0194,-0.0161,-0.016,-0.0115,-0.0113,-0.0128,-0.0148,-0.0147,-0.0147,-0.0147,-0.0147,-0.0535,-0.054,-0.0538,-0.0534,-0.0526,-0.0551,-0.043,-0.0315,-0.0226,-0.0189,-0.0141,-0.0141,-0.0117,-0.0115,-0.0128,-0.0147,-0.0147,-0.0147,-0.0147,-0.0553,-0.0551,-0.0576,-0.0602,-0.0639,-0.0623,-0.0591,-0.0464,-0.0315,-0.0259,-0.0255,-0.0251,-0.0247,-0.0231,-0.0225,-0.0241,-0.0289,-0.029,-0.029,-0.0567,-0.057,-0.0607,-0.065,-0.0715,-0.0755,-0.0732,-0.0535,-0.0309,-0.0302,-0.0347,-0.0144,-0.0123,-0.0123,-0.0084,-0.0081,-0.0101,0,0]}],[{"header":{"parameterUnit":"m.s-1","parameterCategory":2,"la1":30.2992,"la2":30.254,"lo1":-89.0895,"lo2":-89.0443,"dy":0.0025,"dx":0.0025,"nx":19,"ny":19,"refTime":"2026-05-07T03:00:00:Z","depth":"4","parameterNumber":2,"parameterNumberName":"U-component_of_CURRENTS"},"data":[0,0,0,-0.0871,-0.0871,-0.0847,-0.0846,-0.0713,-0.0712,0,0,0,0,0,0,0,0,0,0,0,-0.0873,-0.0873,-0.087,-0.0871,-0.0847,-0.0846,-0.0713,-0.0712,0,0,0,0,0,0,0,0,0,0,0,-0.0873,-0.0873,-0.0874,-0.0871,-0.0847,-0.0846,-0.0713,-0.075,0,0,0,0,0,0,0,0,0,0,-0.0784,-0.0805,-0.0873,-0.0874,-0.0871,-0.0847,-0.0846,-0.0753,-0.0748,-0.0703,0,-0.0718,0,-0.0724,-0.0703,-0.0703,0,0,0,-0.0843,-0.0809,-0.0815,-0.0874,-0.0871,-0.0847,-0.085,-0.0751,-0.0745,-0.0696,-0.0716,-0.0712,-0.0722,-0.0702,-0.0702,-0.0603,-0.0603,0,0,-0.0845,-0.0847,-0.082,-0.0813,-0.0886,-0.0851,-0.0849,-0.0748,-0.0741,-0.0716,-0.071,-0.072,-0.0701,-0.07,-0.0603,-0.0603,0,0,0,-0.0867,-0.0848,-0.0858,-0.0817,-0.0828,-0.0851,-0.0849,-0.0745,-0.0753,-0.0708,-0.0718,-0.0701,-0.0699,-0.0603,-0.0603,-0.0573,0,0,0,-0.0867,-0.0864,-0.0859,-0.0857,-0.0832,-0.08,-0.0848,-0.076,-0.0749,-0.0719,-0.0701,-0.0698,-0.0603,-0.0603,-0.0574,-0.0585,0,0,0,-0.087,-0.0864,-0.0871,-0.0858,-0.0863,-0.0802,-0.0803,-0.0758,-0.0756,-0.0703,-0.0697,-0.0604,-0.0603,-0.0575,-0.0586,-0.0561,0,0,0,-0.0858,-0.0852,-0.0871,-0.0864,-0.0864,-0.084,-0.0804,-0.0775,-0.0735,-0.07,-0.0603,-0.0603,-0.0575,-0.0586,-0.0562,-0.0512,0,0,0,-0.0837,-0.0849,-0.0844,-0.0862,-0.0841,-0.084,-0.0779,-0.0721,-0.0711,-0.0625,-0.0623,-0.0574,-0.0586,-0.0561,-0.0498,0,0,0,0,-0.0828,-0.0821,-0.0821,-0.0816,-0.0817,-0.078,-0.0737,-0.071,-0.0646,-0.0693,-0.0577,-0.0587,-0.0571,-0.0545,-0.0602,-0.0602,-0.0602,-0.0602,-0.0602,-0.0777,-0.0783,-0.0764,-0.0763,-0.0751,-0.0721,-0.0686,-0.0639,-0.062,-0.0599,-0.0563,-0.053,-0.0501,-0.0553,-0.0553,-0.0552,-0.0552,-0.0552,-0.0552,-0.0728,-0.0712,-0.0717,-0.0703,-0.0689,-0.0647,-0.0599,-0.0586,-0.0527,-0.0535,-0.0521,-0.0518,-0.0549,-0.055,-0.055,-0.0551,-0.0551,-0.0551,-0.0551,-0.0684,-0.0677,-0.0681,-0.0663,-0.0633,-0.0611,-0.0567,-0.0547,-0.0519,-0.0503,-0.0467,-0.0515,-0.0515,-0.0486,-0.0486,-0.0486,-0.0486,-0.0486,-0.0486,-0.0644,-0.0643,-0.0625,-0.0624,-0.0604,-0.0588,-0.0557,-0.0527,-0.0502,-0.0447,-0.0498,-0.0508,-0.051,-0.0512,-0.0485,-0.0485,-0.0485,-0.0485,-0.0485,-0.0587,-0.0603,-0.0551,-0.0536,-0.0509,-0.0503,-0.0514,-0.0463,-0.0418,-0.0378,-0.0407,-0.0411,-0.042,-0.0425,-0.0424,-0.0369,-0.0368,-0.0368,0,-0.055,-0.0557,-0.0456,-0.04,-0.0374,-0.0419,-0.0368,-0.0362,-0.0344,-0.0328,-0.0394,-0.0427,-0.0429,-0.0442,-0.0445,-0.0444,0,0,0,-0.0512,-0.0471,-0.037,-0.0317,-0.0282,-0.0302,-0.0346,-0.0317,-0.0369,-0.0327,-0.0349,-0.0354,-0.0448,-0.0481,-0.0506,-0.0509,-0.0513,0,0]},{"header":{"parameterUnit":"m.s-1","parameterCategory":2,"la1":30.2992,"la2":30.254,"lo1":-89.0895,"lo2":-89.0443,"dy":0.0025,"dx":0.0025,"nx":19,"ny":19,"refTime":"2026-05-07T03:00:00:Z","depth":"4","parameterNumber":3,"parameterNumberName":"V-component_of_CURRENTS"},"data":[0,0,0,-0.042,-0.042,-0.0429,-0.0429,-0.0461,-0.0462,0,0,0,0,0,0,0,0,0,0,0,-0.0424,-0.0424,-0.042,-0.042,-0.0429,-0.0429,-0.0461,-0.0462,0,0,0,0,0,0,0,0,0,0,0,-0.0424,-0.0424,-0.0425,-0.042,-0.0429,-0.0429,-0.0461,-0.045,0,0,0,0,0,0,0,0,0,0,-0.0439,-0.0439,-0.0424,-0.0425,-0.042,-0.0429,-0.0429,-0.0449,-0.0451,-0.0462,0,-0.0467,0,-0.0461,-0.0464,-0.0464,0,0,0,-0.0423,-0.0437,-0.0438,-0.0425,-0.042,-0.0429,-0.0426,-0.045,-0.0452,-0.0464,-0.0467,-0.0468,-0.0462,-0.0464,-0.0464,-0.0519,-0.0519,0,0,-0.0423,-0.0427,-0.0437,-0.044,-0.0428,-0.0426,-0.0426,-0.0451,-0.0456,-0.0467,-0.0469,-0.0462,-0.0464,-0.0465,-0.0519,-0.0519,0,0,0,-0.0419,-0.0427,-0.0427,-0.0439,-0.0437,-0.0426,-0.0427,-0.0455,-0.0455,-0.0469,-0.0463,-0.0465,-0.0465,-0.0518,-0.0519,-0.0487,0,0,0,-0.0419,-0.0424,-0.0427,-0.0429,-0.0436,-0.0443,-0.043,-0.0453,-0.0456,-0.0463,-0.0465,-0.0465,-0.0518,-0.0518,-0.0487,-0.0441,0,0,0,-0.0423,-0.0424,-0.0427,-0.043,-0.0431,-0.0442,-0.0443,-0.0454,-0.0452,-0.0464,-0.0465,-0.0518,-0.0518,-0.0487,-0.0443,-0.0427,0,0,0,-0.0425,-0.043,-0.0427,-0.0431,-0.0431,-0.0421,-0.0443,-0.044,-0.0447,-0.0465,-0.0518,-0.0519,-0.0487,-0.0444,-0.0428,-0.0473,0,0,0,-0.0431,-0.0431,-0.0432,-0.0429,-0.0422,-0.042,-0.0413,-0.0432,-0.0468,-0.0511,-0.0512,-0.0487,-0.0443,-0.0427,-0.0522,0,0,0,0,-0.0433,-0.0435,-0.0432,-0.0429,-0.0419,-0.0405,-0.0415,-0.0438,-0.0485,-0.0477,-0.0512,-0.0486,-0.0476,-0.0508,-0.0523,-0.0523,-0.0522,-0.0522,-0.0522,-0.0444,-0.0437,-0.0433,-0.0422,-0.0411,-0.0397,-0.0397,-0.0435,-0.0469,-0.0501,-0.048,-0.0469,-0.0506,-0.0521,-0.0521,-0.052,-0.052,-0.052,-0.052,-0.0445,-0.044,-0.0429,-0.0425,-0.0404,-0.0393,-0.0397,-0.0416,-0.0439,-0.0484,-0.0477,-0.0498,-0.0518,-0.0518,-0.0519,-0.0519,-0.0519,-0.0519,-0.0519,-0.0447,-0.0443,-0.0444,-0.0436,-0.0417,-0.0395,-0.0396,-0.0382,-0.0406,-0.039,-0.0439,-0.0441,-0.0419,-0.0399,-0.0398,-0.0398,-0.0398,-0.0398,-0.0398,-0.0448,-0.0446,-0.0468,-0.0448,-0.0465,-0.0446,-0.0394,-0.0386,-0.0357,-0.0388,-0.0376,-0.0428,-0.0432,-0.0413,-0.0394,-0.0394,-0.0395,-0.0395,-0.0395,-0.0449,-0.0464,-0.0503,-0.0532,-0.0556,-0.0529,-0.0481,-0.0397,-0.0383,-0.0362,-0.0398,-0.0399,-0.0406,-0.041,-0.0391,-0.0364,-0.0365,-0.0365,0,-0.0464,-0.0466,-0.0548,-0.0611,-0.0634,-0.0591,-0.0576,-0.0508,-0.0418,-0.0433,-0.0391,-0.0436,-0.0436,-0.045,-0.0454,-0.0436,0,0,0,-0.0478,-0.0512,-0.0571,-0.063,-0.0667,-0.0615,-0.0558,-0.052,-0.0463,-0.0395,-0.0377,-0.0374,-0.0404,-0.0382,-0.0395,-0.04,-0.037,0,0]}]]